Location: State Camp
(41.2367°N, 77.7828°W)
Time: 16:41:41
(UTC-04:00)

Hubble Space Telescope - Visible Passes

Search period start: 30 April 2016 00:00
Search period end: 10 May 2016 00:00
Orbit: 539 x 543 km, 28.5° (Epoch: 30 April)

Date Brightness Start Highest point End Pass type
(mag) Time Alt. Az. Time Alt. Az. Time Alt. Az.
30 Apr 3.1 05:28:53 10° S 05:30:12 11° S 05:31:31 10° SSE visible
01 May 3.0 05:18:43 10° SSW 05:20:26 12° S 05:22:11 10° SSE visible
02 May 2.9 05:08:43 10° SSW 05:10:41 13° S 05:12:40 10° SE visible
03 May 2.8 04:59:30 12° SSW 05:00:56 14° S 05:03:03 10° SSE visible
04 May 2.7 04:50:21 13° SSW 04:51:11 14° S 04:53:20 10° SSE visible
05 May 2.7 04:41:15 14° S 04:41:26 14° S 04:43:33 10° SSE visible
06 May 2.8 04:32:13 13° S 04:32:13 13° S 04:33:41 10° SSE visible
07 May 3.1 04:23:19 11° SSE 04:23:19 11° SSE 04:23:42 10° SSE visible
